Page, AZ

4:05 PM MDT on April 23, 2018 (GMT -0600)
Page Municipal

Weather History for KPGA - March, 2013

Change the Weather History Date:

Friday, March 22, 2013

  Actual Average Record
Temperature  
Mean Temperature 56 °F -  
Max Temperature 66 °F 61 °F 80 °F (2004)
Min Temperature 44 °F 37 °F 30 °F (1966)
Degree Days  
Heating Degree Days 10    
Growing Degree Days 6 (Base 50)    
Moisture  
Dew Point 0 °F    
Average Humidity 12    
Maximum Humidity 28    
Minimum Humidity 4    
Precipitation  
Precipitation 0.00 in - - ()
Sea Level Pressure  
Sea Level Pressure 29.66 in    
Wind  
Wind Speed 7 mph (WSW)    
Max Wind Speed 17 mph    
Max Gust Speed 31 mph    
Visibility 10 miles    
Events      
Averages and records for this station are not official NWS values.
T = Trace of Precipitation, MM = Missing Value Source: NWS Daily Summary

Daily Weather History Graph

Daily Weather History Graph

Search for Another Location

Airport or City:

Astronomy

Mar. 22, 2013 Rise Set
Actual Time 6:25 AM MST 6:39 PM MST
Civil Twilight 6:00 AM MST 7:05 PM MST
Nautical Twilight 5:29 AM MST 7:35 PM MST
Astronomical Twilight 4:58 AM MST 8:06 PM MST
Moon 2:16 PM MST (3/22) 3:22 AM MST (3/22)
Length of Visible Light 13h 05m
Length of Day
12h 13m
Waxing Gibbous, 78% of the Moon is Illuminated
Mar 22
Waxing Gibbous
Mar 27
Full
Apr 2
Last Quarter
Apr 10
New
Apr 18
First Quarter

Hourly Weather History & Observations

Time (MST) Temp. Windchill Dew Point Humidity Pressure Visibility Wind Dir Wind Speed Gust Speed Precip Events Conditions
12:53 AM 46.0 °F 43.1 °F 14.0 °F 28% 29.70 in 10.0 mi South 5.8 mph - N/A   Clear
1:53 AM 48.0 °F - 5.0 °F 17% 29.70 in 10.0 mi SSE 5.8 mph - N/A   Clear
2:53 AM 48.0 °F - 1.9 °F 15% 29.70 in 10.0 mi SSE 3.5 mph - N/A   Clear
3:53 AM 48.0 °F - 1.9 °F 15% 29.68 in 10.0 mi SE 8.1 mph - N/A   Clear
4:53 AM 48.0 °F - 1.0 °F 14% 29.67 in 10.0 mi SSE 6.9 mph - N/A   Clear
5:53 AM 48.0 °F - 8.1 °F 20% 29.70 in 10.0 mi Calm Calm - N/A   Scattered Clouds
6:53 AM 45.0 °F - 6.1 °F 20% 29.73 in 10.0 mi Calm Calm - N/A   Partly Cloudy
7:53 AM 48.9 °F - 3.0 °F 15% 29.73 in 10.0 mi Calm Calm - N/A   Clear
8:53 AM 52.0 °F - 6.1 °F 16% 29.72 in 10.0 mi NNW 3.5 mph - N/A   Clear
9:53 AM 54.0 °F - 3.9 °F 13% 29.69 in 10.0 mi ESE 5.8 mph - N/A   Clear
10:53 AM 57.0 °F - 5.0 °F 12% 29.67 in 10.0 mi North 5.8 mph - N/A   Clear
11:53 AM 60.1 °F - 8.1 °F 13% 29.64 in 10.0 mi Calm Calm - N/A   Clear
12:53 PM 64.0 °F - 3.9 °F 9% 29.60 in 10.0 mi WSW 10.4 mph 18.4 mph N/A   Clear
1:53 PM 66.0 °F - -14.1 °F 4% 29.57 in 10.0 mi West 17.3 mph 26.5 mph N/A   Clear
2:53 PM 64.9 °F - -18.9 °F 4% 29.57 in 10.0 mi West 12.7 mph 27.6 mph N/A   Clear
3:53 PM 64.9 °F - -13.0 °F 4% 29.57 in 10.0 mi West 16.1 mph 31.1 mph N/A   Clear
4:53 PM 64.0 °F - -13.0 °F 4% 29.56 in 10.0 mi West 15.0 mph 28.8 mph N/A   Clear
5:53 PM 61.0 °F - -9.9 °F 5% 29.58 in 10.0 mi West 12.7 mph 24.2 mph N/A   Clear
6:53 PM 57.9 °F - -6.0 °F 7% 29.62 in 10.0 mi WSW 12.7 mph 27.6 mph N/A   Clear
7:53 PM 57.0 °F - -6.0 °F 8% 29.64 in 10.0 mi West 15.0 mph 25.3 mph N/A   Clear
8:53 PM 55.9 °F - -5.1 °F 8% 29.64 in 10.0 mi WSW 12.7 mph 21.9 mph N/A   Clear
9:53 PM 55.9 °F - -6.0 °F 8% 29.65 in 10.0 mi WSW 9.2 mph - N/A   Clear
10:53 PM 48.0 °F - 15.1 °F 27% 29.71 in 10.0 mi NNW 11.5 mph 20.7 mph N/A   Clear
11:53 PM 44.1 °F 40.1 °F 12.9 °F 28% 29.78 in 10.0 mi WNW 6.9 mph - N/A   Clear